sat.trackr.live / text

‹ back to catalog

HULIANWANG DIGUI-69

NORAD 65229 · 2025-178B

PAYLOAD ACTIVE UNKNOWN

§ Identity

Operator
Country
PRC
Launch date
2025-08-17
Launch site
TAISC
Launch vehicle
Mass (kg)
RCS (m²)

External: N2YO · Heavens-Above · Gunter

§ Orbital elements

Epoch: 2026-09-20T22:01:53.263776Z

Period
108.73 min
Inclination
86.5055°
Eccentricity
0.0001688
Mean motion
13.24415351 rev/d
Perigee alt
1,166.6 km
Apogee alt
1,169.2 km
Semi-major
7,546.0 km
B*
4.4953e-5
RAAN
341.3093°
Arg perigee
105.5678°
Mean anomaly
254.5642°
Rev number
5,298

§ Raw data

HULIANWANG DIGUI-691 65229U 25178B   26263.91797759  .00000034  00000+0  44953-4 0  99952 65229  86.5055 341.3093 0001688 105.5678 254.5642 13.24415351 52984

JSON: /api/v1/satellites/65229 · /tle

For live sub-satellite position, see the globe view (requires WebGL).

§ Visibility from observer

Set your observer location to see the next 7 days of passes ≥ 10°. The values pass through the URL so the page stays shareable.

No JS? Fill the form by hand. The geolocation button needs JavaScript.